ProjectID,Date,Electric Generation,Electric Utility Import,Facility Electric Load
,YYYY-MM-DD,kW,kW,kW
524,2017-10-01,439.9427083333333,,439.9427083333333
524,2017-10-02,429.7760416666667,,429.7760416666667
524,2017-10-03,403.9010416666667,,403.9010416666667
524,2017-10-04,400.921875,,400.921875
524,2017-10-05,347.890625,,347.890625
524,2017-10-06,135.27604166666666,,135.27604166666666
524,2017-10-07,95.53645833333333,,95.53645833333333
524,2017-10-08,184.04166666666666,,184.04166666666666
524,2017-10-09,79.515625,,79.515625
524,2017-10-10,325.0520833333333,,325.0520833333333
524,2017-10-11,153.47395833333334,,153.47395833333334
524,2017-10-12,365.125,,365.125
524,2017-10-13,261.1614583333333,,261.1614583333333
524,2017-10-14,196.85416666666666,,196.85416666666666
524,2017-10-15,330.0572916666667,,330.0572916666667
524,2017-10-16,260.2239583333333,,260.2239583333333
524,2017-10-17,371.7708333333333,,371.7708333333333
524,2017-10-18,344.03125,,344.03125
524,2017-10-19,344.5208333333333,,344.5208333333333
524,2017-10-20,350.234375,,350.234375
524,2017-10-21,304.59375,,304.59375
524,2017-10-22,252.68229166666666,,252.68229166666666
524,2017-10-23,254.984375,,254.984375
524,2017-10-24,83.88020833333333,,83.88020833333333
524,2017-10-25,230.81770833333334,,230.81770833333334
524,2017-10-26,104.328125,,104.328125
524,2017-10-27,309.2135416666667,,309.2135416666667
524,2017-10-28,279.765625,,279.765625
524,2017-10-29,29.515625,,29.515625
524,2017-10-30,137.609375,,137.609375
524,2017-10-31,231.078125,,231.078125
524,2017-11-01,78.26041666666667,,78.26041666666667
524,2017-11-02,111.39583333333333,,111.39583333333333
524,2017-11-03,38.078125,,38.078125
524,2017-11-04,238.58854166666666,,238.58854166666666
524,2017-11-05,53.223958333333336,,53.223958333333336
524,2017-11-06,35.536458333333336,,35.536458333333336
524,2017-11-07,52.953125,,52.953125
524,2017-11-08,296.1822916666667,,296.1822916666667
524,2017-11-09,196.390625,,196.390625
524,2017-11-10,287.4583333333333,,287.4583333333333
524,2017-11-11,292.9479166666667,,292.9479166666667
524,2017-11-12,234.54166666666666,,234.54166666666666
524,2017-11-13,101.16666666666667,,101.16666666666667
524,2017-11-14,56.458333333333336,,56.458333333333336
524,2017-11-15,239.171875,,239.171875
524,2017-11-16,118.96354166666667,,118.96354166666667
524,2017-11-17,244.57291666666666,,244.57291666666666
524,2017-11-18,59.447916666666664,,59.447916666666664
524,2017-11-19,134.07291666666666,,134.07291666666666
524,2017-11-20,159.96875,,159.96875
524,2017-11-21,253.47395833333334,,253.47395833333334
524,2017-11-22,37.270833333333336,,37.270833333333336
524,2017-11-23,214.375,,214.375
524,2017-11-24,232.89583333333334,,232.89583333333334
524,2017-11-25,146.39583333333334,,146.39583333333334
524,2017-11-26,68.53125,,68.53125
524,2017-11-27,0.484375,,0.484375
524,2017-11-28,0.0,,0.0
524,2017-11-29,0.0,,0.0
524,2017-11-30,0.0,,0.0
524,2017-12-01,0.0,,0.0
524,2017-12-02,0.0,,0.0
524,2017-12-03,0.0,,0.0
524,2017-12-04,0.0,,0.0
524,2017-12-05,0.0,,0.0
524,2017-12-06,0.0,,0.0
524,2017-12-07,0.0,,0.0
524,2017-12-08,0.0,,0.0
524,2017-12-09,1.40625,,1.40625
524,2017-12-10,6.734375,,6.734375
524,2017-12-11,14.8125,,14.8125
524,2017-12-12,0.13541666666666666,,0.13541666666666666
524,2017-12-13,34.6875,,34.6875
524,2017-12-14,32.890625,,32.890625
524,2017-12-15,26.78125,,26.78125
524,2017-12-16,21.28125,,21.28125
524,2017-12-17,34.380208333333336,,34.380208333333336
524,2017-12-18,15.208333333333334,,15.208333333333334
524,2017-12-19,108.0,,108.0
524,2017-12-20,145.765625,,145.765625
524,2017-12-21,217.77604166666666,,217.77604166666666
524,2017-12-22,0.3072916666666667,,0.3072916666666667
524,2017-12-23,1.9010416666666667,,1.9010416666666667
524,2017-12-24,63.020833333333336,,63.020833333333336
524,2017-12-25,10.020833333333334,,10.020833333333334
524,2017-12-26,83.30729166666667,,83.30729166666667
524,2017-12-27,100.65625,,100.65625
524,2017-12-28,126.09895833333333,,126.09895833333333
524,2017-12-29,122.55208333333333,,122.55208333333333
524,2017-12-30,26.052083333333332,,26.052083333333332
524,2017-12-31,44.088541666666664,,44.088541666666664
524,2018-01-01,138.671875,,138.671875
524,2018-01-02,119.48958333333333,,119.48958333333333
524,2018-01-03,193.32291666666666,,193.32291666666666
524,2018-01-04,2.9479166666666665,,2.9479166666666665
524,2018-01-05,146.16145833333334,,146.16145833333334
524,2018-01-06,189.51041666666666,,189.51041666666666
524,2018-01-07,222.671875,,222.671875
524,2018-01-08,43.645833333333336,,43.645833333333336
524,2018-01-09,91.13020833333333,,91.13020833333333
524,2018-01-10,235.69270833333334,,235.69270833333334
524,2018-01-11,138.34375,,138.34375
524,2018-01-12,50.895833333333336,,50.895833333333336
524,2018-01-13,39.364583333333336,,39.364583333333336
524,2018-01-14,55.536458333333336,,55.536458333333336
524,2018-01-15,50.869791666666664,,50.869791666666664
524,2018-01-16,10.052083333333334,,10.052083333333334
524,2018-01-17,0.0625,,0.0625
524,2018-01-18,1.515625,,1.515625
524,2018-01-19,0.2760416666666667,,0.2760416666666667
524,2018-01-20,15.46875,,15.46875
524,2018-01-21,83.05208333333333,,83.05208333333333
524,2018-01-22,40.302083333333336,,40.302083333333336
524,2018-01-23,54.546875,,54.546875
524,2018-01-24,190.01041666666666,,190.01041666666666
524,2018-01-25,291.7916666666667,,291.7916666666667
524,2018-01-26,277.3489583333333,,277.3489583333333
524,2018-01-27,241.27083333333334,,241.27083333333334
524,2018-01-28,158.90625,,158.90625
524,2018-01-29,231.32291666666666,,231.32291666666666
524,2018-01-30,68.77083333333333,,68.77083333333333
524,2018-01-31,266.3177083333333,,266.3177083333333
524,2018-02-01,94.36979166666667,,94.36979166666667
524,2018-02-02,298.2239583333333,,298.2239583333333
524,2018-02-03,305.5,,305.5
524,2018-02-04,44.182291666666664,,44.182291666666664
524,2018-02-05,23.697916666666668,,23.697916666666668
524,2018-02-06,13.682291666666666,,13.682291666666666
524,2018-02-07,0.03125,,0.03125
524,2018-02-08,0.3229166666666667,,0.3229166666666667
524,2018-02-09,0.0,,0.0
524,2018-02-10,0.010416666666666666,,0.010416666666666666
524,2018-02-11,1.1510416666666667,,1.1510416666666667
524,2018-02-12,18.796875,,18.796875
524,2018-02-13,35.890625,,35.890625
524,2018-02-14,30.885416666666668,,30.885416666666668
524,2018-02-15,118.58854166666667,,118.58854166666667
524,2018-02-16,89.79166666666667,,89.79166666666667
524,2018-02-17,271.7552083333333,,271.7552083333333
524,2018-02-18,157.28645833333334,,157.28645833333334
524,2018-02-19,221.61979166666666,,221.61979166666666
524,2018-02-20,199.296875,,199.296875
524,2018-02-21,187.359375,,187.359375
524,2018-02-22,17.796875,,17.796875
524,2018-02-23,1.1614583333333333,,1.1614583333333333
524,2018-02-24,152.82291666666666,,152.82291666666666
524,2018-02-25,42.380208333333336,,42.380208333333336
524,2018-02-26,351.7083333333333,,351.7083333333333
524,2018-02-27,399.6354166666667,,399.6354166666667
524,2018-02-28,328.5677083333333,,328.5677083333333
524,2018-03-01,279.1875,,279.1875
524,2018-03-02,0.0,,0.0
524,2018-03-03,1.7395833333333333,,1.7395833333333333
524,2018-03-04,21.182291666666668,,21.182291666666668
524,2018-03-05,16.09375,,16.09375
524,2018-03-06,109.63541666666667,,109.63541666666667
524,2018-03-07,0.7916666666666666,,0.7916666666666666
524,2018-03-08,0.0,,0.0
524,2018-03-09,0.052083333333333336,,0.052083333333333336
524,2018-03-10,5.552083333333333,,5.552083333333333
524,2018-03-11,42.989583333333336,,42.989583333333336
524,2018-03-12,84.125,,84.125
524,2018-03-13,0.5520833333333334,,0.5520833333333334
524,2018-03-14,1.171875,,1.171875
524,2018-03-15,31.614583333333332,,31.614583333333332
524,2018-03-16,190.44791666666666,,190.44791666666666
524,2018-03-17,275.2395833333333,,275.2395833333333
524,2018-03-18,390.1666666666667,,390.1666666666667
524,2018-03-19,418.7864583333333,,418.7864583333333
524,2018-03-20,383.0833333333333,,383.0833333333333
524,2018-03-21,268.5989583333333,,268.5989583333333
524,2018-03-22,464.0208333333333,,464.0208333333333
524,2018-03-23,465.2291666666667,,465.2291666666667
524,2018-03-24,524.2291666666666,,524.2291666666666
524,2018-03-25,347.09375,,347.09375
524,2018-03-26,533.7135416666666,,533.7135416666666
524,2018-03-27,321.8645833333333,,321.8645833333333
524,2018-03-28,188.47916666666666,,188.47916666666666
524,2018-03-29,70.22395833333333,,70.22395833333333
524,2018-03-30,183.421875,,183.421875
524,2018-03-31,543.71875,,543.71875
524,2018-04-01,400.5416666666667,,400.5416666666667
524,2018-04-02,318.2604166666667,,318.2604166666667
524,2018-04-03,126.08333333333333,,126.08333333333333
524,2018-04-04,164.58854166666666,,164.58854166666666
524,2018-04-05,458.28125,,458.28125
524,2018-04-06,199.078125,,199.078125
524,2018-04-07,449.9791666666667,,449.9791666666667
524,2018-04-08,382.4114583333333,,382.4114583333333
524,2018-04-09,549.734375,,549.734375
524,2018-04-10,377.9583333333333,,377.9583333333333
524,2018-04-11,367.8020833333333,,367.8020833333333
524,2018-04-12,161.03125,,161.03125
524,2018-04-13,244.91666666666666,,244.91666666666666
524,2018-04-14,327.1875,,327.1875
524,2018-04-15,79.32291666666667,,79.32291666666667
524,2018-04-16,63.760416666666664,,63.760416666666664
524,2018-04-17,280.7604166666667,,280.7604166666667
524,2018-04-18,212.69791666666666,,212.69791666666666
524,2018-04-19,262.3958333333333,,262.3958333333333
524,2018-04-20,406.2916666666667,,406.2916666666667
524,2018-04-21,618.15625,,618.15625
524,2018-04-22,617.2395833333334,,617.2395833333334
524,2018-04-23,610.65625,,610.65625
524,2018-04-24,569.4791666666666,,569.4791666666666
524,2018-04-25,106.89583333333333,,106.89583333333333
524,2018-04-26,259.0104166666667,,259.0104166666667
524,2018-04-27,137.22916666666666,,137.22916666666666
524,2018-04-28,371.5625,,371.5625
524,2018-04-29,117.20833333333333,,117.20833333333333
524,2018-04-30,226.1875,,226.1875
524,2018-05-01,485.9791666666667,,485.9791666666667
524,2018-05-02,561.09375,,561.09375
524,2018-05-03,277.40625,,277.40625
524,2018-05-04,331.5625,,331.5625
524,2018-05-05,567.9375,,567.9375
524,2018-05-06,164.90625,,164.90625
524,2018-05-07,388.0,,388.0
524,2018-05-08,604.3541666666666,,604.3541666666666
524,2018-05-09,601.5729166666666,,601.5729166666666
524,2018-05-10,283.75,,283.75
524,2018-05-11,557.375,,557.375
524,2018-05-12,95.42708333333333,,95.42708333333333
524,2018-05-13,566.2291666666666,,566.2291666666666
524,2018-05-14,418.09375,,418.09375
524,2018-05-15,273.6354166666667,,273.6354166666667
524,2018-05-16,533.4479166666666,,533.4479166666666
524,2018-05-17,425.46875,,425.46875
524,2018-05-18,27.1875,,27.1875
524,2018-05-19,38.489583333333336,,38.489583333333336
524,2018-05-20,26.583333333333332,,26.583333333333332
524,2018-05-21,18.635416666666668,,18.635416666666668
524,2018-05-22,1.0208333333333333,,1.0208333333333333
524,2018-05-23,614.5208333333334,,614.5208333333334
524,2018-05-24,645.0,,645.0
524,2018-05-25,614.96875,,614.96875
524,2018-05-26,444.4583333333333,,444.4583333333333
524,2018-05-27,89.4375,,89.4375
524,2018-05-28,379.90625,,379.90625
524,2018-05-29,582.6041666666666,,582.6041666666666
524,2018-05-30,583.9375,,583.9375
524,2018-05-31,407.53125,,407.53125
524,2018-06-01,434.2291666666667,,434.2291666666667
524,2018-06-02,443.34375,,443.34375
524,2018-06-03,424.03125,,424.03125
524,2018-06-04,209.52083333333334,,209.52083333333334
524,2018-06-05,231.48958333333334,,231.48958333333334
524,2018-06-06,384.3645833333333,,384.3645833333333
524,2018-06-07,446.25,,446.25
524,2018-06-08,570.8854166666666,,570.8854166666666
524,2018-06-09,543.5729166666666,,543.5729166666666
524,2018-06-10,621.0416666666666,,621.0416666666666
524,2018-06-11,659.5,,659.5
524,2018-06-12,639.1145833333334,,639.1145833333334
524,2018-06-13,217.45833333333334,,217.45833333333334
524,2018-06-14,488.34375,,488.34375
524,2018-06-15,409.15625,,409.15625
524,2018-06-16,606.5520833333334,,606.5520833333334
524,2018-06-17,635.375,,635.375
524,2018-06-18,474.8541666666667,,474.8541666666667
524,2018-06-19,653.8854166666666,,653.8854166666666
524,2018-06-20,382.6770833333333,,382.6770833333333
524,2018-06-21,593.1458333333334,,593.1458333333334
524,2018-06-22,593.2708333333334,,593.2708333333334
524,2018-06-23,116.86458333333333,,116.86458333333333
524,2018-06-24,314.8125,,314.8125
524,2018-06-25,647.78125,,647.78125
524,2018-06-26,652.875,,652.875
524,2018-06-27,194.65625,,194.65625
524,2018-06-28,307.2395833333333,,307.2395833333333
524,2018-06-29,642.8541666666666,,642.8541666666666
524,2018-06-30,589.0416666666666,,589.0416666666666
524,2018-07-01,567.8333333333334,,567.8333333333334
524,2018-07-02,533.5208333333334,,533.5208333333334
524,2018-07-03,568.4375,,568.4375
524,2018-07-04,598.7708333333334,,598.7708333333334
524,2018-07-05,479.6354166666667,,479.6354166666667
524,2018-07-06,496.8333333333333,,496.8333333333333
524,2018-07-07,651.0208333333334,,651.0208333333334
524,2018-07-08,637.4583333333334,,637.4583333333334
524,2018-07-09,634.125,,634.125
524,2018-07-10,466.4375,,466.4375
524,2018-07-11,578.0833333333334,,578.0833333333334
524,2018-07-12,572.6875,,572.6875
524,2018-07-13,598.40625,,598.40625
524,2018-07-14,311.0,,311.0
524,2018-07-15,539.15625,,539.15625
524,2018-07-16,549.84375,,549.84375
524,2018-07-17,178.97916666666666,,178.97916666666666
524,2018-07-18,554.6979166666666,,554.6979166666666
524,2018-07-19,638.1041666666666,,638.1041666666666
524,2018-07-20,623.2604166666666,,623.2604166666666
524,2018-07-21,575.5208333333334,,575.5208333333334
524,2018-07-22,352.25,,352.25
524,2018-07-23,256.3854166666667,,256.3854166666667
524,2018-07-24,349.5729166666667,,349.5729166666667
524,2018-07-25,252.25,,252.25
524,2018-07-26,421.3541666666667,,421.3541666666667
524,2018-07-27,364.8854166666667,,364.8854166666667
524,2018-07-28,359.8541666666667,,359.8541666666667
524,2018-07-29,559.9270833333334,,559.9270833333334
524,2018-07-30,411.7708333333333,,411.7708333333333
524,2018-07-31,496.2916666666667,,496.2916666666667
524,2018-08-01,251.58333333333334,,251.58333333333334
524,2018-08-02,328.8645833333333,,328.8645833333333
524,2018-08-03,142.30208333333334,,142.30208333333334
524,2018-08-04,458.21875,,458.21875
524,2018-08-05,557.59375,,557.59375
524,2018-08-06,527.625,,527.625
524,2018-08-07,389.8020833333333,,389.8020833333333
524,2018-08-08,353.59375,,353.59375
524,2018-08-09,545.9479166666666,,545.9479166666666
524,2018-08-10,406.5104166666667,,406.5104166666667
524,2018-08-11,157.45833333333334,,157.45833333333334
524,2018-08-12,289.78125,,289.78125
524,2018-08-13,215.52083333333334,,215.52083333333334
524,2018-08-14,364.8125,,364.8125
524,2018-08-15,499.3958333333333,,499.3958333333333
524,2018-08-16,501.25,,501.25
524,2018-08-17,230.84375,,230.84375
524,2018-08-18,269.625,,269.625
524,2018-08-19,439.7708333333333,,439.7708333333333
524,2018-08-20,449.6458333333333,,449.6458333333333
524,2018-08-21,426.5520833333333,,426.5520833333333
524,2018-08-22,371.5416666666667,,371.5416666666667
524,2018-08-23,556.9583333333334,,556.9583333333334
524,2018-08-24,513.90625,,513.90625
524,2018-08-25,436.1354166666667,,436.1354166666667
524,2018-08-26,332.9791666666667,,332.9791666666667
524,2018-08-27,387.3229166666667,,387.3229166666667
524,2018-08-28,453.2604166666667,,453.2604166666667
524,2018-08-29,446.6875,,446.6875
524,2018-08-30,346.5,,346.5
524,2018-08-31,182.09375,,182.09375
524,2018-09-01,345.6770833333333,,345.6770833333333
524,2018-09-02,331.7291666666667,,331.7291666666667
524,2018-09-03,391.4895833333333,,391.4895833333333
524,2018-09-04,494.1979166666667,,494.1979166666667
524,2018-09-05,466.5,,466.5
524,2018-09-06,393.6979166666667,,393.6979166666667
524,2018-09-07,308.0833333333333,,308.0833333333333
524,2018-09-08,260.0625,,260.0625
524,2018-09-09,239.80208333333334,,239.80208333333334
524,2018-09-10,64.52083333333333,,64.52083333333333
524,2018-09-11,151.4375,,151.4375
524,2018-09-12,163.60416666666666,,163.60416666666666
524,2018-09-13,339.2291666666667,,339.2291666666667
524,2018-09-14,265.75,,265.75
524,2018-09-15,354.0520833333333,,354.0520833333333
524,2018-09-16,436.34375,,436.34375
524,2018-09-17,154.47916666666666,,154.47916666666666
524,2018-09-18,0.0,,0.0
524,2018-09-19,0.0,,0.0
524,2018-09-20,0.0,,0.0
524,2018-09-21,0.0,,0.0
524,2018-09-22,0.0,,0.0
524,2018-09-23,0.0,,0.0
524,2018-09-24,0.0,,0.0
524,2018-09-25,0.0,,0.0
524,2018-09-26,40.916666666666664,,40.916666666666664
524,2018-09-27,288.75,,288.75
524,2018-09-28,191.17708333333334,,191.17708333333334
524,2018-09-29,429.4583333333333,,429.4583333333333
524,2018-09-30,286.6979166666667,,286.6979166666667
524,2018-10-01,51.104166666666664,,51.104166666666664
524,2018-10-02,56.6875,,56.6875
524,2018-10-03,151.9375,,151.9375
524,2018-10-04,147.84375,,147.84375
524,2018-10-05,427.25,,427.25
524,2018-10-06,183.80208333333334,,183.80208333333334
524,2018-10-07,108.25,,108.25
524,2018-10-08,74.9375,,74.9375
524,2018-10-09,233.57291666666666,,233.57291666666666
524,2018-10-10,276.6770833333333,,276.6770833333333
524,2018-10-11,74.46875,,74.46875
524,2018-10-12,252.95833333333334,,252.95833333333334
524,2018-10-13,209.21875,,209.21875
524,2018-10-14,321.1979166666667,,321.1979166666667
524,2018-10-15,0.0,,0.0
524,2018-10-16,0.0,,0.0
524,2018-10-17,0.0,,0.0
524,2018-10-18,0.0,,0.0
524,2018-10-19,103.77083333333333,,103.77083333333333
524,2018-10-20,206.07291666666666,,206.07291666666666
524,2018-10-21,244.9375,,244.9375
524,2018-10-22,136.97916666666666,,136.97916666666666
524,2018-10-23,189.65625,,189.65625
524,2018-10-24,149.26041666666666,,149.26041666666666
524,2018-10-25,139.86458333333334,,139.86458333333334
524,2018-10-26,244.41666666666666,,244.41666666666666
524,2018-10-27,31.541666666666668,,31.541666666666668
524,2018-10-28,112.11458333333333,,112.11458333333333
524,2018-10-29,110.66666666666667,,110.66666666666667
524,2018-10-30,183.48958333333334,,183.48958333333334
524,2018-10-31,138.83333333333334,,138.83333333333334
524,2018-11-01,19.40625,,19.40625
524,2018-11-02,44.71875,,44.71875
524,2018-11-03,142.92708333333334,,142.92708333333334
524,2018-11-04,225.48958333333334,,225.48958333333334
524,2018-11-05,53.229166666666664,,53.229166666666664
524,2018-11-06,27.65625,,27.65625
524,2018-11-07,278.6875,,278.6875
524,2018-11-08,155.9375,,155.9375
524,2018-11-09,58.875,,58.875
524,2018-11-10,187.69791666666666,,187.69791666666666
524,2018-11-11,204.17708333333334,,204.17708333333334
524,2018-11-12,214.875,,214.875
524,2018-11-13,30.552083333333332,,30.552083333333332
524,2018-11-14,222.08333333333334,,222.08333333333334
524,2018-11-15,97.59375,,97.59375
524,2018-11-16,0.0,,0.0
524,2018-11-17,39.385416666666664,,39.385416666666664
524,2018-11-18,97.09375,,97.09375
524,2018-11-19,28.635416666666668,,28.635416666666668
524,2018-11-20,21.760416666666668,,21.760416666666668
524,2018-11-21,75.98958333333333,,75.98958333333333
524,2018-11-22,226.05208333333334,,226.05208333333334
524,2018-11-23,258.15625,,258.15625
524,2018-11-24,193.32291666666666,,193.32291666666666
524,2018-11-25,54.875,,54.875
524,2018-11-26,21.958333333333332,,21.958333333333332
524,2018-11-27,45.520833333333336,,45.520833333333336
524,2018-11-28,120.59375,,120.59375
524,2018-11-29,136.59375,,136.59375
524,2018-11-30,71.17708333333333,,71.17708333333333
524,2018-12-01,194.28125,,194.28125
524,2018-12-02,25.427083333333332,,25.427083333333332
524,2018-12-03,109.92708333333333,,109.92708333333333
524,2018-12-04,205.1875,,205.1875
524,2018-12-05,191.30208333333334,,191.30208333333334
524,2018-12-06,106.15625,,106.15625
524,2018-12-07,175.29166666666666,,175.29166666666666
524,2018-12-08,136.98958333333334,,136.98958333333334
524,2018-12-09,178.33333333333334,,178.33333333333334
524,2018-12-10,159.90625,,159.90625
524,2018-12-11,121.76041666666667,,121.76041666666667
524,2018-12-12,170.13541666666666,,170.13541666666666
524,2018-12-13,23.65625,,23.65625
524,2018-12-14,47.916666666666664,,47.916666666666664
524,2018-12-15,84.97916666666667,,84.97916666666667
524,2018-12-16,27.375,,27.375
524,2018-12-17,56.5,,56.5
524,2018-12-18,221.875,,221.875
524,2018-12-19,214.25,,214.25
524,2018-12-20,174.875,,174.875
524,2018-12-21,28.09375,,28.09375
524,2018-12-22,78.30208333333333,,78.30208333333333
524,2018-12-23,86.04166666666667,,86.04166666666667
524,2018-12-24,75.16666666666667,,75.16666666666667
524,2018-12-25,219.07291666666666,,219.07291666666666
524,2018-12-26,87.48958333333333,,87.48958333333333
524,2018-12-27,173.47916666666666,,173.47916666666666
524,2018-12-28,40.40625,,40.40625
524,2018-12-29,48.96875,,48.96875
524,2018-12-30,66.79166666666667,,66.79166666666667
524,2018-12-31,105.79166666666667,,105.79166666666667
524,2019-01-01,53.135416666666664,,53.135416666666664
524,2019-01-02,185.02083333333334,,185.02083333333334
524,2019-01-03,118.64583333333333,,118.64583333333333
524,2019-01-04,155.33333333333334,,155.33333333333334
524,2019-01-05,48.583333333333336,,48.583333333333336
524,2019-01-06,95.3125,,95.3125
524,2019-01-07,134.89583333333334,,134.89583333333334
524,2019-01-08,96.9375,,96.9375
524,2019-01-09,70.67708333333333,,70.67708333333333
524,2019-01-10,200.5625,,200.5625
524,2019-01-11,240.47916666666666,,240.47916666666666
524,2019-01-12,235.3125,,235.3125
524,2019-01-13,244.67708333333334,,244.67708333333334
524,2019-01-14,246.15625,,246.15625
524,2019-01-15,83.69791666666667,,83.69791666666667
524,2019-01-16,67.20833333333333,,67.20833333333333
524,2019-01-17,210.09375,,210.09375
524,2019-01-18,17.489583333333332,,17.489583333333332
524,2019-01-19,45.354166666666664,,45.354166666666664
524,2019-01-20,0.0,,0.0
524,2019-01-21,0.0,,0.0
524,2019-01-22,0.0,,0.0
524,2019-01-23,0.0,,0.0
524,2019-01-24,4.375,,4.375
524,2019-01-25,96.78125,,96.78125
524,2019-01-26,108.60416666666667,,108.60416666666667
524,2019-01-27,46.645833333333336,,46.645833333333336
524,2019-01-28,163.55208333333334,,163.55208333333334
524,2019-01-29,8.96875,,8.96875
524,2019-01-30,13.40625,,13.40625
524,2019-01-31,108.16666666666667,,108.16666666666667
524,2019-02-01,127.65625,,127.65625
524,2019-02-02,140.26041666666666,,140.26041666666666
524,2019-02-03,90.40625,,90.40625
524,2019-02-04,239.19791666666666,,239.19791666666666
524,2019-02-05,149.20833333333334,,149.20833333333334
524,2019-02-06,192.48958333333334,,192.48958333333334
524,2019-02-07,129.36458333333334,,129.36458333333334
524,2019-02-08,165.5625,,165.5625
524,2019-02-09,316.09375,,316.09375
524,2019-02-10,265.6770833333333,,265.6770833333333
524,2019-02-11,276.40625,,276.40625
524,2019-02-12,29.9375,,29.9375
524,2019-02-13,1.5,,1.5
524,2019-02-14,5.0,,5.0
524,2019-02-15,77.27083333333333,,77.27083333333333
524,2019-02-16,249.76041666666666,,249.76041666666666
524,2019-02-17,349.5104166666667,,349.5104166666667
524,2019-02-18,2.2083333333333335,,2.2083333333333335
524,2019-02-19,17.90625,,17.90625
524,2019-02-20,19.833333333333332,,19.833333333333332
524,2019-02-21,59.8125,,59.8125
524,2019-02-22,178.5,,178.5
524,2019-02-23,267.40625,,267.40625
524,2019-02-24,78.86458333333333,,78.86458333333333
524,2019-02-25,258.8020833333333,,258.8020833333333
524,2019-02-26,432.84375,,432.84375
524,2019-02-27,167.26041666666666,,167.26041666666666
524,2019-02-28,6.385416666666667,,6.385416666666667
524,2019-03-01,33.583333333333336,,33.583333333333336
524,2019-03-02,52.291666666666664,,52.291666666666664
524,2019-03-03,246.76041666666666,,246.76041666666666
524,2019-03-04,86.63541666666667,,86.63541666666667
524,2019-03-05,339.4479166666667,,339.4479166666667